Regional Weather Roundup
Issued by NWS

Home | Current Version | Previous Version | Text Only | Print | Product List | Glossary On
Versions: 1 2 3 4 5 6 7 8 9 10 11 12 13 14 15 16 17 18 19 20 21 22 23 24 25 26 27 28 29 30 31 32 33 34 35 36 37 38 39 40 41 42 43 44 45 46 47 48 49 50
000
ASUS44 KOUN 301310
RWROK

WEATHER ROUNDUP FOR OKLAHOMA
NATIONAL WEATHER SERVICE NORMAN OK
800 AM CDT FRI SEP 30 2016

NOTE: "FAIR" INDICATES FEW OR NO CLOUDS BELOW 12,000 FEET WITH NO
      SIGNIFICANT WEATHER AND/OR OBSTRUCTIONS TO VISIBILITY.

OKZ001>007-009>012-014-015-017-301400-
NORTHWEST OKLAHOMA AND THE PANHANDLE

CITY           SKY/WX    TMP DP  RH WIND       PRES   REMARKS
GAGE           CLEAR     44  42  93 CALM      30.28S
GUYMON         CLEAR     46  42  86 SE5       30.23S
ENID/WOODRING  PTCLDY    48  48 100 N5        30.26S
$$

OKZ016-021>023-033>039-044-045-301400-
SOUTHWEST OKLAHOMA

CITY           SKY/WX    TMP DP  RH WIND       PRES   REMARKS
LAWTON/REGL    CLEAR     49  47  93 NW3       30.26R
LAWTON/FT SILL CLEAR     53  48  84 NW3       30.25R
FREDERICK      CLEAR     54  49  83 NE8       30.23S
CLINTON        CLEAR     51  48  89 N5        30.29R
HOBART         CLEAR     51  48  89 N3        30.27S
ALTUS AFB      CLEAR     49  46  90 NE5       30.26S
$$

OKZ018>020-024>031-301400-
CENTRAL OKLAHOMA

CITY           SKY/WX    TMP DP  RH WIND       PRES   REMARKS
OKLAHOMA CITY  PTCLDY    53  49  86 N7        30.26S
OKC/WILEY POST CLEAR     49  47  93 CALM      30.26S
OKC/TINKER AFB CLOUDY    52  48  84 N2        30.25S
STILLWATER     CLEAR     46  45  96 CALM      30.26S FOG
GUTHRIE        CLEAR     46  46 100 CALM      30.27R FOG
$$

OKZ008-013-054>072-301400-
NORTHEAST OKLAHOMA

CITY           SKY/WX    TMP DP  RH WIND       PRES   REMARKS
TULSA          PTCLDY    52  49  89 NW5       30.25R
TULSA/JONES    CLEAR     51  49  92 NW3       30.25R
PONCA CITY     CLEAR     47  45  93 N3        30.27R
BARTLESVILLE   CLEAR     47  45  93 CALM      30.27R
MUSKOGEE       CLEAR     51  48  89 CALM      30.25R
$$

OKZ032-040>043-046>053-073>077-301400-
SOUTH CENTRAL/SOUTHEAST OKLAHOMA

CITY           SKY/WX    TMP DP  RH WIND       PRES   REMARKS
ARDMORE/DWNTWN PTCLDY    52  50  93 CALM      30.24S FOG
MCALESTER      PTCLDY    48  45  89 CALM      30.24R
$$




USA.gov is the U.S. government's official web portal to all federal, state and local government web resources and services.